Weather History for Sanford, NC

Change the Weather History Date:

Wednesday, May 15, 2013

  Actual Average (KRDU) Record (KRDU)
Temperature  
Mean Temperature 68 °F 68 °F  
Max Temperature 88 °F 79 °F 95 °F (2010)
Min Temperature 48 °F 56 °F 41 °F (1895)
Degree Days  
Heating Degree Days 0 2  
Month to date heating degree days 38  
Since 1 July heating degree days 3227  
Cooling Degree Days 3 4  
Month to date cooling degree days 51  
Year to date cooling degree days 112  
Growing Degree Days 18 (Base 50)    
Moisture  
Dew Point 53 °F    
Average Humidity 59    
Maximum Humidity 90    
Minimum Humidity 34    
Precipitation  
Precipitation 0.00 in 0.10 in 3.38 in (2014)
Month to date precipitation 1.46  
Year to date precipitation 15.22  
Sea Level Pressure  
Sea Level Pressure 30.01 in    
Wind  
Wind Speed 4 mph (SSW)    
Max Wind Speed 9 mph    
Max Gust Speed -    
Visibility 10 miles    
Events      
T = Trace of Precipitation, MM = Missing Value Source: NWS Daily Summary

Daily Weather History Graph

Daily Weather History Graph

Search for Another Location

Airport:

Trip Planner

Search our weather history database for the weather conditions in past years. The results will help you decide how hot, cold, wet, or windy it might be!

Date:

Astronomy

May. 15, 2013 Rise Set
Actual Time 6:11 AM EDT 8:14 PM EDT
Civil Twilight 5:43 AM EDT 8:43 PM EDT
Nautical Twilight 5:08 AM EDT 9:17 PM EDT
Astronomical Twilight 4:31 AM EDT 9:54 PM EDT
Moon 10:43 AM EDT (5/15) 12:01 AM EDT (5/15)
Length of Visible Light 14h 59m
Length of Day
14h 03m
Waxing Crescent, 26% of the Moon is Illuminated
May 15
Waxing Crescent
May 18
First Quarter
May 25
Full
May 31
Last Quarter
Jun 8
New

Hourly Weather History & Observations

Time (EDT) Temp. Heat Index Dew Point Humidity Pressure Visibility Wind Dir Wind Speed Gust Speed Precip Events Conditions
12:15 AM 57.6 °F - 41.9 °F 56% 30.09 in 10.0 mi South 3.5 mph - N/A   Clear
12:35 AM 56.8 °F - 42.6 °F 59% 30.08 in 10.0 mi South 4.6 mph - N/A   Clear
12:55 AM 57.2 °F - 42.4 °F 58% 30.08 in 10.0 mi South 4.6 mph - N/A   Clear
1:15 AM 57.2 °F - 42.1 °F 57% 30.08 in 10.0 mi South 5.8 mph - N/A   Clear
1:35 AM 57.7 °F - 41.9 °F 56% 30.07 in 10.0 mi South 6.9 mph - N/A   Clear
1:55 AM 56.7 °F - 42.3 °F 59% 30.07 in 10.0 mi Calm Calm - N/A   Clear
2:35 AM 55.4 °F - 43.3 °F 64% 30.08 in 10.0 mi Calm Calm - N/A   Clear
2:55 AM 52.7 °F - 45.5 °F 76% 30.08 in 10.0 mi Calm Calm - N/A   Clear
3:15 AM 52.9 °F - 44.2 °F 72% 30.08 in 10.0 mi Calm Calm - N/A   Clear
3:35 AM 52.7 °F - 44.6 °F 74% 30.07 in 10.0 mi SSE 3.5 mph - N/A   Clear
3:55 AM 52.7 °F - 45.5 °F 76% 30.07 in 10.0 mi Calm Calm - N/A   Clear
4:15 AM 51.1 °F - 45.5 °F 81% 30.06 in 10.0 mi Calm Calm - N/A   Clear
4:35 AM 51.1 °F - 45.7 °F 82% 30.07 in 10.0 mi Calm Calm - N/A   Clear
4:55 AM 49.3 °F - 45.5 °F 87% 30.07 in 10.0 mi Calm Calm - N/A   Clear
5:15 AM 50.2 °F - 46.4 °F 87% 30.07 in 10.0 mi Calm Calm - N/A   Clear
5:35 AM 49.5 °F - 45.9 °F 87% 30.07 in 10.0 mi Calm Calm - N/A   Clear
5:55 AM 48.9 °F - 46.0 °F 90% 30.07 in 10.0 mi Calm Calm - N/A   Clear
6:15 AM 51.8 °F - 48.2 °F 88% 30.07 in 10.0 mi Calm Calm - N/A   Clear
6:35 AM 52.0 °F - 47.7 °F 85% 30.08 in 10.0 mi Calm Calm - N/A   Clear
6:55 AM 52.3 °F - 48.6 °F 87% 30.08 in 10.0 mi Calm Calm - N/A   Clear
7:15 AM 55.0 °F - 50.7 °F 85% 30.08 in 10.0 mi Calm Calm - N/A   Clear
7:35 AM 56.8 °F - 50.7 °F 80% 30.08 in 10.0 mi Calm Calm - N/A   Clear
7:55 AM 59.9 °F - 50.7 °F 72% 30.08 in 10.0 mi SSW 4.6 mph - N/A   Clear
8:15 AM 60.4 °F - 50.9 °F 71% 30.08 in 10.0 mi SSW 4.6 mph - N/A   Clear
8:35 AM 61.7 °F - 51.1 °F 68% 30.07 in 10.0 mi SSW 4.6 mph - N/A   Clear
8:55 AM 63.0 °F - 51.8 °F 67% 30.08 in 10.0 mi SSW 4.6 mph - N/A   Clear
9:15 AM 65.7 °F - 51.8 °F 61% 30.07 in 10.0 mi SW 8.1 mph - N/A   Clear
9:35 AM 66.6 °F - 52.0 °F 59% 30.07 in 10.0 mi SW 8.1 mph - N/A   Clear
9:55 AM 68.5 °F - 53.2 °F 58% 30.07 in 10.0 mi SSW 6.9 mph - N/A   Clear
10:15 AM 69.8 °F - 53.1 °F 55% 30.06 in 10.0 mi SW 9.2 mph - N/A   Clear
10:35 AM 72.0 °F - 54.0 °F 53% 30.06 in 10.0 mi WSW 8.1 mph - N/A   Clear
10:55 AM 73.4 °F - 54.7 °F 52% 30.06 in 10.0 mi SW 4.6 mph - N/A   Clear
11:15 AM 75.4 °F - 55.2 °F 49% 30.06 in 10.0 mi SW 6.9 mph - N/A   Clear
11:35 AM 76.5 °F - 55.0 °F 47% 30.05 in 10.0 mi SSW 3.5 mph - N/A   Clear
11:55 AM 77.5 °F - 56.3 °F 48% 30.05 in 10.0 mi SW 3.5 mph - N/A   Clear
12:15 PM 79.7 °F - 56.5 °F 45% 30.04 in 10.0 mi WSW 5.8 mph - N/A   Clear
12:35 PM 81.0 °F 80.9 °F 56.7 °F 43% 30.04 in 10.0 mi SW 3.5 mph - N/A   Clear
12:55 PM 81.7 °F 81.1 °F 54.5 °F 39% 30.03 in 10.0 mi WSW 9.2 mph - N/A   Clear
1:15 PM 83.1 °F 82.4 °F 56.7 °F 40% 30.02 in 10.0 mi SW 9.2 mph - N/A   Clear
1:55 PM 85.3 °F 84.1 °F 56.5 °F 37% 30.00 in 10.0 mi SSW 6.9 mph - N/A   Clear
2:15 PM 85.5 °F 84.3 °F 56.1 °F 37% 29.99 in 10.0 mi SW 8.1 mph - N/A   Clear
2:35 PM 87.1 °F 85.7 °F 55.9 °F 35% 29.98 in 10.0 mi SW 6.9 mph - N/A   Clear
2:55 PM 86.7 °F 85.3 °F 55.8 °F 35% 29.97 in 10.0 mi SSW 5.8 mph - N/A   Clear
3:15 PM 87.1 °F 85.5 °F 55.6 °F 34% 29.96 in 10.0 mi SW 4.6 mph - N/A   Clear
3:35 PM 87.8 °F 86.3 °F 55.9 °F 34% 29.96 in 10.0 mi West 9.2 mph - N/A   Clear
3:55 PM 87.8 °F 86.3 °F 56.1 °F 34% 29.96 in 10.0 mi SW 8.1 mph - N/A   Clear
4:15 PM 88.3 °F 87.1 °F 57.2 °F 35% 29.95 in 10.0 mi SW 9.2 mph - N/A   Clear
4:35 PM 87.8 °F 86.3 °F 56.3 °F 34% 29.94 in 10.0 mi SW 8.1 mph - N/A   Clear
4:55 PM 88.3 °F 87.1 °F 57.2 °F 35% 29.93 in 10.0 mi SW 9.2 mph - N/A   Clear
5:35 PM 88.2 °F 86.7 °F 56.7 °F 34% 29.93 in 10.0 mi SW 9.2 mph - N/A   Clear
5:55 PM 88.0 °F 86.5 °F 56.7 °F 34% 29.92 in 10.0 mi SSW 9.2 mph - N/A   Clear
6:15 PM 87.8 °F 86.5 °F 56.8 °F 35% 29.92 in 10.0 mi SW 8.1 mph - N/A   Clear
6:35 PM 87.1 °F 85.7 °F 56.3 °F 35% 29.92 in 10.0 mi SW 8.1 mph - N/A   Clear
6:55 PM 86.7 °F 85.4 °F 56.7 °F 36% 29.92 in 10.0 mi SW 6.9 mph - N/A   Clear
7:15 PM 85.5 °F 84.8 °F 58.5 °F 40% 29.91 in 10.0 mi SW 5.8 mph - N/A   Clear
7:35 PM 84.2 °F 83.7 °F 58.3 °F 41% 29.91 in 10.0 mi SW 4.6 mph - N/A   Clear
7:55 PM 82.0 °F 82.1 °F 59.0 °F 45% 29.92 in 10.0 mi SW 3.5 mph - N/A   Clear
8:15 PM 78.4 °F - 60.4 °F 54% 29.91 in 10.0 mi Calm Calm - N/A   Clear
8:35 PM 74.8 °F - 62.2 °F 65% 29.92 in 10.0 mi Calm Calm - N/A   Clear
8:55 PM 74.1 °F - 61.3 °F 64% 29.92 in 10.0 mi Calm Calm - N/A   Clear
9:15 PM 72.7 °F - 62.4 °F 70% 29.93 in 10.0 mi Calm Calm - N/A   Clear
9:35 PM 70.5 °F - 61.7 °F 74% 29.94 in 10.0 mi Calm Calm - N/A   Clear
9:55 PM 72.5 °F - 60.6 °F 66% 29.94 in 10.0 mi Calm Calm - N/A   Clear
10:15 PM 71.6 °F - 61.2 °F 70% 29.94 in 10.0 mi Calm Calm - N/A   Clear
10:35 PM 70.9 °F - 60.8 °F 70% 29.94 in 10.0 mi Calm Calm - N/A   Clear
10:55 PM 70.2 °F - 60.8 °F 72% 29.94 in 10.0 mi Calm Calm - N/A   Clear
11:15 PM 70.2 °F - 60.3 °F 71% 29.94 in 10.0 mi Calm Calm - N/A   Clear
11:35 PM 70.5 °F - 60.1 °F 69% 29.94 in 10.0 mi South 3.5 mph - N/A   Clear
11:55 PM 69.6 °F - 60.1 °F 72% 29.94 in 10.0 mi South 3.5 mph - N/A   Clear